[[{"header":{"parameterUnit":"m.s-1","parameterCategory":1,"la1":30.2991,"la2":30.254,"lo1":-89.0895,"lo2":-89.0444,"dy":0.0017,"dx":0.0017,"nx":28,"ny":28,"refTime":"2024-05-22T09:00:00:Z","depth":0,"parameterNumber":2,"parameterNumberName":"U-component_of_WINDS"},"data":[0,0,0,0,0,0,0,0,0,0,0,0,0,0,0,0,0,0,0,0,0,0,0,0,0,0,0,0,0,0,0,0,0,0,0,0,0,0,0,0,0,0,0,0,0,0,0,0,0,0,0,0,0,0,0,0,0,0,-1.646,-1.646,0,-1.6512,-1.6513,-1.6513,-1.651,-1.6509,-1.6508,-1.6508,-1.6561,-1.6563,-1.6565,0,0,0,0,0,0,0,0,0,0,0,0,0,-1.6358,-1.636,-1.646,-1.646,-1.6461,-1.6512,-1.6513,-1.6513,-1.651,-1.6509,-1.6508,-1.6507,-1.656,-1.6562,-1.6565,0,0,0,0,0,0,0,0,0,0,0,0,0,-1.6405,-1.636,-1.646,-1.6466,-1.6467,-1.6512,-1.6513,-1.6514,-1.651,-1.6509,-1.6508,-1.6507,-1.6559,-1.6562,-1.6565,-1.6608,0,0,-1.6575,-1.6576,0,0,0,0,0,0,0,0,-1.6403,-1.6409,-1.6464,-1.6465,-1.6467,-1.6503,-1.6496,-1.6545,-1.6511,-1.6494,-1.6508,-1.6506,-1.6542,-1.6547,-1.6559,-1.661,-1.6613,-1.6575,-1.6577,-1.6579,-1.6579,0,0,0,0,0,0,0,-1.6399,-1.6407,-1.648,-1.6465,-1.6466,-1.6466,-1.6471,-1.6505,-1.6524,-1.6495,-1.6495,-1.6501,-1.6543,-1.6556,-1.656,-1.6613,-1.6575,-1.6578,-1.658,-1.6581,-1.6703,-1.6704,0,0,0,0,0,0,-1.6395,-1.6404,-1.6479,-1.6482,-1.6431,-1.6469,-1.6475,-1.6493,-1.6523,-1.6527,-1.6502,-1.6501,-1.6551,-1.6557,-1.6562,-1.6614,-1.6579,-1.6582,-1.6583,-1.6702,-1.6703,-1.6705,0,0,0,0,0,0,-1.6393,-1.6401,-1.6477,-1.6443,-1.6453,-1.6472,-1.6492,-1.6494,-1.6507,-1.6529,-1.6532,-1.6512,-1.6551,-1.6558,-1.6597,-1.6616,-1.6583,-1.6586,-1.67,-1.6702,-1.6704,-1.6718,0,0,0,0,0,0,-1.639,-1.6401,-1.6417,-1.6443,-1.6454,-1.651,-1.6493,-1.6496,-1.6513,-1.6512,-1.6539,-1.6542,-1.655,-1.6592,-1.66,-1.662,-1.6588,-1.6698,-1.6701,-1.6703,-1.6716,-1.672,-1.6724,0,0,0,0,0,-1.6386,-1.6418,-1.6417,-1.6426,-1.6475,-1.6511,-1.6517,-1.6526,-1.6515,-1.6531,-1.6545,-1.6542,-1.6613,-1.6596,-1.6605,-1.6626,-1.6697,-1.67,-1.6703,-1.6714,-1.6719,-1.6724,0,0,0,0,0,0,-1.6393,-1.6422,-1.6421,-1.6463,-1.6485,-1.651,-1.6531,-1.6531,-1.6556,-1.6554,-1.6563,-1.6569,-1.6608,-1.6621,-1.6602,-1.6669,-1.6654,-1.6658,-1.6659,-1.6664,-1.6668,-1.6663,-1.6591,0,0,0,0,0,-1.6399,-1.6426,-1.645,-1.6485,-1.6496,-1.6512,-1.6528,-1.6533,-1.6555,-1.6564,-1.6581,-1.6603,-1.6631,-1.6648,-1.6675,-1.6718,-1.6724,-1.6737,-1.6741,-1.6745,-1.6748,-1.6773,-1.6779,-1.6714,-1.6714,-1.6714,0,0,-1.6412,-1.6432,-1.6448,-1.6487,-1.6504,-1.6532,-1.6519,-1.6549,-1.657,-1.6569,-1.6606,-1.662,-1.6645,-1.6687,-1.6706,-1.6699,-1.6768,-1.6748,-1.6751,-1.6753,-1.6776,-1.6782,-1.6788,-1.6716,-1.6716,-1.6716,0,0,-1.6451,-1.6468,-1.6499,-1.6517,-1.6544,-1.6554,-1.6562,-1.6588,-1.6597,-1.6635,-1.6635,-1.6661,-1.6707,-1.6726,-1.6741,-1.6789,-1.6786,-1.6797,-1.6817,-1.6841,-1.6846,-1.6851,-1.6867,-1.6873,-1.6801,-1.6801,-1.6801,0,-1.6463,-1.6505,-1.6515,-1.6545,-1.6562,-1.6564,-1.6595,-1.6612,-1.6646,-1.6658,-1.665,-1.6709,-1.6727,-1.6773,-1.6784,-1.6797,-1.6806,-1.6793,-1.6845,-1.6849,-1.6854,-1.687,-1.6876,-1.6802,-1.6802,-1.6802,-1.6802,0,-1.652,-1.6549,-1.6571,-1.6604,-1.6624,-1.6655,-1.6669,-1.6688,-1.6692,-1.6704,-1.6743,-1.6764,-1.6795,-1.6807,-1.6811,-1.6854,-1.6849,-1.6843,-1.6827,-1.6861,-1.6876,-1.6882,-1.6804,-1.6803,-1.6803,-1.6803,0,0,-1.6561,-1.6601,-1.6608,-1.6624,-1.6654,-1.6677,-1.6709,-1.6739,-1.6755,-1.678,-1.6806,-1.6847,-1.6842,-1.6859,-1.6865,-1.6886,-1.6922,-1.6878,-1.6879,-1.6885,-1.6971,-1.6975,-1.6982,-1.6922,-1.6923,-1.6924,-1.6969,0,-1.6602,-1.6657,-1.6668,-1.6716,-1.6743,-1.6746,-1.6773,-1.6795,-1.6808,-1.6833,-1.6847,-1.6875,-1.6867,-1.6877,-1.6899,-1.6914,-1.694,-1.6911,-1.6946,-1.6948,-1.6938,-1.699,-1.6993,-1.7034,-1.6975,-1.6976,-1.6977,0,-1.6656,-1.6682,-1.6733,-1.6761,-1.6772,-1.6797,-1.6826,-1.685,-1.6876,-1.6883,-1.6904,-1.6908,-1.6942,-1.6926,-1.6972,-1.6952,-1.6967,-1.6977,-1.6979,-1.6982,-1.6963,-1.6992,-1.7047,-1.7053,-1.6986,-1.6986,-1.6985,0,-1.668,-1.6728,-1.6765,-1.6778,-1.6811,-1.6829,-1.6843,-1.6868,-1.6886,-1.6912,-1.6924,-1.6954,-1.697,-1.6993,-1.7005,-1.6993,-1.705,-1.7036,-1.7057,-1.7057,-1.7068,-1.7067,-1.7125,-1.708,-1.708,-1.708,-1.708,0,-1.6724,-1.6755,-1.6776,-1.6799,-1.6834,-1.6846,-1.6881,-1.6895,-1.6917,-1.6943,-1.6948,-1.6972,-1.6987,-1.7014,-1.7024,-1.706,-1.7068,-1.7075,-1.7077,-1.7074,-1.7073,-1.7083,-1.708,-1.7082,-1.7081,-1.7081,-1.7081,0,-1.6756,-1.6772,-1.6812,-1.6841,-1.6849,-1.6873,-1.6898,-1.6921,-1.6934,-1.6966,-1.6975,-1.6996,-1.7027,-1.7042,-1.7081,-1.7088,-1.713,-1.713,-1.7121,-1.7121,-1.7142,-1.7139,-1.7208,-1.7217,-1.7167,-1.7168,-1.7168,0,-1.6782,-1.6806,-1.6838,-1.6855,-1.6871,-1.6899,-1.6918,-1.6932,-1.6951,-1.6983,-1.7001,-1.7033,-1.7059,-1.711,-1.7128,-1.7159,-1.7159,-1.7181,-1.7164,-1.716,-1.7159,-1.7157,-1.7159,-1.7184,-1.7184,-1.7185,-1.7185,0,-1.6826,-1.6833,-1.686,-1.689,-1.6912,-1.6937,-1.6961,-1.6975,-1.6993,-1.7015,-1.7047,-1.7068,-1.7108,-1.714,-1.7172,-1.7187,-1.7189,-1.7191,-1.7197,-1.7193,-1.7187,-1.719,-1.7128,-1.7189,-1.7188,-1.7188,-1.7188,-1.7188,-1.6855,-1.6877,-1.6903,-1.6933,-1.6953,-1.6975,-1.6998,-1.7014,-1.7042,-1.7076,-1.7083,-1.7117,-1.7143,-1.7187,-1.7203,-1.7231,-1.7226,-1.7235,-1.7238,-1.7239,-1.724,-1.7184,-1.7237,-1.7237,-1.7237,-1.7237,-1.7237,0,-1.6899,-1.6916,-1.6944,-1.6977,-1.7001,-1.7002,-1.7029,-1.7049,-1.708,-1.7104,-1.713,-1.7168,-1.7199,-1.7221,-1.7253,-1.7271,-1.7273,-1.7279,-1.7277,-1.728,-1.7243,-1.7234,-1.7277,-1.7277,-1.7277,-1.7277,-1.7277,-1.7277,-1.6924,-1.6961,-1.6971,-1.7018,-1.7035,-1.7069,-1.7084,-1.7106,-1.7125,-1.7167,-1.7193,-1.7208,-1.7231,-1.7265,-1.7294,-1.73,-1.7311,-1.7317,-1.7323,-1.7287,-1.7283,-1.7279,-1.727,-1.732,-1.732,-1.7357,-1.7358,-1.7358]},{"header":{"parameterUnit":"m.s-1","parameterCategory":1,"la1":30.2991,"la2":30.254,"lo1":-89.0895,"lo2":-89.0444,"dy":0.0017,"dx":0.0017,"nx":28,"ny":28,"refTime":"2024-05-22T09:00:00:Z","depth":0,"parameterNumber":3,"parameterNumberName":"V-component_of_WINDS"},"data":[0,0,0,0,0,0,0,0,0,0,0,0,0,0,0,0,0,0,0,0,0,0,0,0,0,0,0,0,0,0,0,0,0,0,0,0,0,0,0,0,0,0,0,0,0,0,0,0,0,0,0,0,0,0,0,0,0,0,3.2701,3.2701,0,3.2707,3.2707,3.2707,3.2704,3.2704,3.2704,3.2704,3.2709,3.271,3.271,0,0,0,0,0,0,0,0,0,0,0,0,0,3.2685,3.2686,3.2701,3.2701,3.2701,3.2707,3.2707,3.2707,3.2704,3.2704,3.2704,3.2704,3.2709,3.271,3.271,0,0,0,0,0,0,0,0,0,0,0,0,0,3.2692,3.2686,3.2701,3.27,3.27,3.2707,3.2707,3.2707,3.2704,3.2704,3.2704,3.2703,3.2709,3.271,3.271,3.2718,0,0,3.2712,3.2712,0,0,0,0,0,0,0,0,3.2692,3.2692,3.27,3.27,3.27,3.2705,3.2704,3.2711,3.2704,3.2703,3.2704,3.2703,3.2708,3.2709,3.271,3.2718,3.2718,3.2712,3.2712,3.2712,3.2712,0,0,0,0,0,0,0,3.2691,3.2692,3.2703,3.27,3.27,3.2699,3.27,3.2705,3.2707,3.2703,3.2703,3.2703,3.2708,3.271,3.271,3.2718,3.2712,3.2712,3.2712,3.2712,3.2733,3.2733,0,0,0,0,0,0,3.2691,3.2692,3.2703,3.2703,3.2695,3.27,3.2701,3.2703,3.2707,3.2707,3.2704,3.2703,3.2709,3.271,3.2711,3.272,3.2712,3.2713,3.2713,3.2733,3.2733,3.2734,0,0,0,0,0,0,3.269,3.2692,3.2703,3.2698,3.2699,3.27,3.2704,3.2704,3.2705,3.2707,3.2707,3.2705,3.2709,3.271,3.2716,3.272,3.2713,3.2713,3.2733,3.2733,3.2733,3.2738,0,0,0,0,0,0,3.269,3.2692,3.2695,3.2698,3.2699,3.2708,3.2704,3.2704,3.2706,3.2706,3.2709,3.2709,3.2709,3.2716,3.2717,3.272,3.2713,3.2732,3.2733,3.2733,3.2738,3.2739,3.274,0,0,0,0,0,3.2689,3.2696,3.2695,3.2696,3.2703,3.2709,3.2709,3.2709,3.2707,3.271,3.2711,3.2709,3.272,3.2716,3.2717,3.2721,3.2732,3.2733,3.2733,3.2737,3.2739,3.274,0,0,0,0,0,0,3.2693,3.2696,3.2695,3.2702,3.2705,3.2708,3.2712,3.2711,3.2714,3.2714,3.2713,3.2714,3.272,3.2722,3.2718,3.2729,3.2725,3.2726,3.2728,3.2729,3.273,3.273,3.2714,0,0,0,0,0,3.2694,3.2699,3.2701,3.2707,3.2709,3.271,3.2713,3.2712,3.2715,3.2716,3.2718,3.272,3.2724,3.2727,3.2731,3.2738,3.2739,3.2742,3.2743,3.2743,3.2744,3.2748,3.2749,3.2736,3.2736,3.2736,0,0,3.2697,3.27,3.2703,3.2708,3.271,3.2715,3.2711,3.2716,3.2719,3.2717,3.2723,3.2724,3.2727,3.2734,3.2737,3.2735,3.2748,3.2744,3.2745,3.2745,3.2749,3.275,3.2751,3.2736,3.2736,3.2736,0,0,3.2705,3.2708,3.2713,3.2716,3.2719,3.272,3.2721,3.2725,3.2725,3.2732,3.273,3.2734,3.2741,3.2743,3.2745,3.2754,3.2753,3.2756,3.2761,3.2765,3.2766,3.2767,3.277,3.2771,3.2756,3.2756,3.2756,0,3.2709,3.2716,3.2716,3.2721,3.2724,3.2722,3.2728,3.273,3.2735,3.2736,3.2734,3.2743,3.2745,3.2752,3.2755,3.2756,3.2758,3.2755,3.2766,3.2767,3.2767,3.2771,3.2772,3.2757,3.2757,3.2757,3.2757,0,3.272,3.2725,3.2729,3.2733,3.2736,3.2742,3.2743,3.2746,3.2746,3.2747,3.2753,3.2755,3.276,3.2761,3.2761,3.2769,3.2768,3.2766,3.2762,3.2769,3.2772,3.2773,3.2757,3.2757,3.2757,3.2757,0,0,3.2729,3.2735,3.2736,3.2739,3.2743,3.2746,3.2752,3.2756,3.2759,3.2762,3.2766,3.2772,3.2771,3.2773,3.2773,3.2776,3.2784,3.2774,3.2774,3.2775,3.2793,3.2794,3.2795,3.2783,3.2783,3.2783,3.2792,0,3.2738,3.2747,3.2748,3.2757,3.2761,3.276,3.2765,3.2768,3.2769,3.2773,3.2774,3.2778,3.2776,3.2777,3.2781,3.2782,3.2787,3.2781,3.2787,3.2787,3.2786,3.2797,3.2798,3.2807,3.2793,3.2794,3.2794,0,3.2749,3.2753,3.2762,3.2766,3.2767,3.2772,3.2776,3.278,3.2783,3.2784,3.2787,3.2786,3.2791,3.2788,3.2795,3.2791,3.2793,3.2794,3.2795,3.2795,3.2791,3.2797,3.2809,3.2811,3.2796,3.2795,3.2795,0,3.2755,3.2762,3.2769,3.2771,3.2775,3.2778,3.278,3.2784,3.2786,3.279,3.2792,3.2796,3.2798,3.2802,3.2802,3.2799,3.2809,3.2806,3.281,3.281,3.2812,3.2812,3.2824,3.2814,3.2814,3.2814,3.2814,0,3.2764,3.2769,3.2772,3.2776,3.2782,3.2783,3.2789,3.2791,3.2794,3.2798,3.2797,3.2801,3.2802,3.2806,3.2806,3.2812,3.2813,3.2814,3.2814,3.2814,3.2814,3.2815,3.2814,3.2814,3.2814,3.2814,3.2814,0,3.2772,3.2774,3.2781,3.2784,3.2786,3.279,3.2793,3.2797,3.2798,3.2804,3.2805,3.2807,3.2812,3.2813,3.2818,3.2819,3.2826,3.2825,3.2825,3.2825,3.2829,3.2828,3.2843,3.2844,3.2833,3.2833,3.2833,0,3.2777,3.2782,3.2786,3.2789,3.2791,3.2796,3.2799,3.28,3.2803,3.2808,3.2811,3.2816,3.2819,3.2827,3.2829,3.2833,3.2833,3.2837,3.2833,3.2833,3.2832,3.2832,3.2833,3.2838,3.2838,3.2838,3.2838,0,3.2787,3.2788,3.2792,3.2797,3.2801,3.2805,3.2808,3.2811,3.2812,3.2816,3.2821,3.2824,3.283,3.2834,3.2839,3.284,3.284,3.284,3.2841,3.2841,3.284,3.284,3.2827,3.2839,3.2839,3.2839,3.2839,3.2839,3.2794,3.2798,3.2802,3.2807,3.281,3.2813,3.2817,3.2819,3.2823,3.2829,3.2829,3.2834,3.2838,3.2843,3.2846,3.285,3.2848,3.285,3.285,3.2851,3.2851,3.284,3.2851,3.285,3.285,3.285,3.285,0,3.2804,3.2806,3.2811,3.2816,3.282,3.282,3.2824,3.2827,3.2832,3.2835,3.2839,3.2845,3.285,3.2852,3.2856,3.2859,3.2859,3.286,3.286,3.2861,3.2852,3.2851,3.2861,3.2861,3.2861,3.2861,3.2861,3.2861,3.2809,3.2816,3.2817,3.2826,3.2828,3.2834,3.2836,3.2839,3.2842,3.2848,3.2852,3.2854,3.2857,3.2862,3.2866,3.2867,3.2868,3.287,3.287,3.2862,3.2861,3.286,3.2859,3.287,3.287,3.2878,3.2878,3.2878]}]]